Location: Azul
(36.7830°S, 59.8500°W)
Time: 12:30:35
(UTC-03:00)

ISS - Pass Details

Date: 20 February 2018
Orbit: 403 x 406 km, 51.6° (Epoch: 26 February)

Event Time Altitude Azimuth Distance (km) Brightness Sun altitude
Rises 22:08:17 0° 282° (WNW) 2,338 0.6 -25.7°
Reaches altitude 10° 22:10:38 10° 267° (W) 1,483 -0.3 -26.1°
Maximum altitude 22:13:24 24° 211° (SSW) 917 -1.4 -26.5°
Enters shadow 22:13:27 24° 209° (SSW) 918 -1.4 -26.6°
